Meteo pe oră la Bolshie Ostrogi

Astăzi, 6 Mai, Joi

Timp Temperatura Precipitaţii Vânt Presiune Umiditate
00:00 +8°C° 0 mm 5 m/s 734 mmHg 83%
01:00 +8°C° 0 mm 5 m/s 733 mmHg 86%
02:00 +7°C° 0 mm 5 m/s 733 mmHg 88%
03:00 +8°C° 0 mm 6 m/s 732 mmHg 89%
04:00 +8°C° 0 mm 6 m/s 732 mmHg 91%
05:00 +8°C° 0 mm 7 m/s 732 mmHg 93%
06:00 +9°C° 0.2 mm 7 m/s 731 mmHg 93%
07:00 +9°C° 0.2 mm 8 m/s 731 mmHg 93%
08:00 +9°C° 0 mm 8 m/s 730 mmHg 93%
09:00 +8°C° 1.8 mm 7 m/s 731 mmHg 92%
10:00 +6°C° 1.8 mm 7 m/s 732 mmHg 91%
11:00 +5°C° 1.8 mm 6 m/s 733 mmHg 91%
12:00 +5°C° 0.2 mm 6 m/s 733 mmHg 87%
13:00 +7°C° 0.2 mm 6 m/s 734 mmHg 83%
14:00 +8°C° 0.2 mm 7 m/s 735 mmHg 78%
15:00 +8°C° 0.4 mm 7 m/s 735 mmHg 77%
16:00 +8°C° 0.4 mm 7 m/s 735 mmHg 76%
17:00 +8°C° 0.4 mm 7 m/s 736 mmHg 75%
18:00 +7°C° 0.1 mm 6 m/s 736 mmHg 78%
19:00 +5°C° 0.1 mm 5 m/s 737 mmHg 81%
20:00 +4°C° 0.1 mm 3 m/s 737 mmHg 84%
21:00 +3°C° 0 mm 4 m/s 738 mmHg 83%
22:00 +3°C° 0 mm 4 m/s 738 mmHg 83%
23:00 +3°C° 0 mm 4 m/s 738 mmHg 82%

Mâine, 7 Mai, Vineri

Timp Temperatura Precipitaţii Vânt Presiune Umiditate
00:00 +1°C° 0 mm 4 m/s 738 mmHg 83%
01:00 +2°C° 0 mm 3 m/s 739 mmHg 85%
02:00 +1°C° 0 mm 3 m/s 739 mmHg 86%
03:00 +1°C° 0 mm 3 m/s 739 mmHg 85%
04:00 0°C° 0 mm 4 m/s 739 mmHg 84%
05:00 0°C° 0 mm 4 m/s 739 mmHg 83%
06:00 +2°C° 0 mm 5 m/s 739 mmHg 80%
07:00 +4°C° 0 mm 6 m/s 739 mmHg 76%
08:00 +7°C° 0 mm 6 m/s 739 mmHg 73%
09:00 +8°C° 0.2 mm 7 m/s 739 mmHg 70%
10:00 +9°C° 0.2 mm 7 m/s 739 mmHg 66%
11:00 +10°C° 0.2 mm 7 m/s 739 mmHg 63%
12:00 +11°C° 0.3 mm 7 m/s 739 mmHg 63%
13:00 +11°C° 0.3 mm 7 m/s 738 mmHg 64%
14:00 +12°C° 0.3 mm 7 m/s 738 mmHg 64%
15:00 +11°C° 0.3 mm 7 m/s 738 mmHg 67%
16:00 +10°C° 0.3 mm 6 m/s 737 mmHg 71%
17:00 +10°C° 0.3 mm 6 m/s 737 mmHg 74%
18:00 +9°C° 1.8 mm 7 m/s 736 mmHg 80%
19:00 +7°C° 1.8 mm 8 m/s 736 mmHg 86%
20:00 +6°C° 1.8 mm 8 m/s 735 mmHg 92%
21:00 +8°C° 0.3 mm 7 m/s 735 mmHg 93%
22:00 +8°C° 0.3 mm 7 m/s 735 mmHg 93%
23:00 +8°C° 0.3 mm 6 m/s 734 mmHg 94%

Poimâine, 8 Mai, Sâmbătă

Timp Temperatura Precipitaţii Vânt Presiune Umiditate
00:00 +8°C° 0.1 mm 5 m/s 734 mmHg 95%
01:00 +8°C° 0.1 mm 4 m/s 734 mmHg 95%
02:00 +8°C° 0.1 mm 4 m/s 734 mmHg 96%
03:00 +8°C° 0.5 mm 3 m/s 734 mmHg 96%
04:00 +8°C° 0.5 mm 3 m/s 733 mmHg 97%
05:00 +8°C° 0.5 mm 3 m/s 733 mmHg 97%
06:00 +8°C° 0.4 mm 3 m/s 733 mmHg 96%
07:00 +7°C° 0.4 mm 4 m/s 733 mmHg 94%
08:00 +7°C° 0.4 mm 4 m/s 733 mmHg 92%
09:00 +8°C° 0.3 mm 5 m/s 733 mmHg 86%
10:00 +9°C° 0.3 mm 6 m/s 733 mmHg 80%
11:00 +9°C° 0.3 mm 6 m/s 734 mmHg 74%
12:00 +6°C° 0.3 mm 7 m/s 734 mmHg 81%
13:00 +3°C° 0.3 mm 7 m/s 735 mmHg 88%
14:00 0°C° 0.3 mm 8 m/s 736 mmHg 95%
15:00 +1°C° 0.6 mm 8 m/s 736 mmHg 93%
16:00 +2°C° 0.6 mm 7 m/s 737 mmHg 91%
17:00 +3°C° 0.6 mm 7 m/s 738 mmHg 89%
18:00 +2°C° 0 mm 6 m/s 738 mmHg 88%
19:00 +2°C° 0 mm 6 m/s 739 mmHg 87%
20:00 +2°C° 0 mm 5 m/s 739 mmHg 85%
21:00 +2°C° 0 mm 5 m/s 740 mmHg 87%
22:00 +1°C° 0 mm 5 m/s 740 mmHg 89%
23:00 0°C° 0 mm 4 m/s 741 mmHg 91%

9 Mai, Duminică

Timp Temperatura Precipitaţii Vânt Presiune Umiditate
00:00 0°C° 0 mm 4 m/s 741 mmHg 92%
01:00 0°C° 0 mm 4 m/s 742 mmHg 93%
02:00 0°C° 0 mm 4 m/s 743 mmHg 94%
03:00 -1°C° 0 mm 4 m/s 743 mmHg 94%
04:00 -1°C° 0 mm 4 m/s 744 mmHg 94%
05:00 -1°C° 0 mm 4 m/s 745 mmHg 93%
06:00 +1°C° 0 mm 4 m/s 745 mmHg 86%
07:00 +3°C° 0 mm 4 m/s 746 mmHg 78%
08:00 +5°C° 0 mm 5 m/s 747 mmHg 71%
09:00 +6°C° 0 mm 5 m/s 747 mmHg 64%
10:00 +7°C° 0 mm 5 m/s 748 mmHg 57%
11:00 +9°C° 0 mm 5 m/s 748 mmHg 50%
12:00 +9°C° 0 mm 5 m/s 748 mmHg 49%
13:00 +11°C° 0 mm 4 m/s 749 mmHg 47%
14:00 +11°C° 0 mm 4 m/s 749 mmHg 46%
15:00 +11°C° 0 mm 3 m/s 749 mmHg 48%
16:00 +11°C° 0 mm 3 m/s 749 mmHg 49%
17:00 +12°C° 0 mm 2 m/s 750 mmHg 51%
18:00 +9°C° 0 mm 2 m/s 750 mmHg 55%
19:00 +8°C° 0 mm 2 m/s 750 mmHg 59%
20:00 +7°C° 0 mm 1 m/s 751 mmHg 63%
21:00 +6°C° 0 mm 2 m/s 751 mmHg 65%
22:00 +5°C° 0 mm 2 m/s 751 mmHg 66%
23:00 +4°C° 0 mm 3 m/s 752 mmHg 68%

10 Mai, Luni

Timp Temperatura Precipitaţii Vânt Presiune Umiditate
00:00 +3°C° 0 mm 3 m/s 752 mmHg 70%
01:00 +3°C° 0 mm 3 m/s 752 mmHg 71%
02:00 +3°C° 0 mm 3 m/s 752 mmHg 73%
03:00 +3°C° 0 mm 3 m/s 753 mmHg 74%
04:00 +3°C° 0 mm 3 m/s 753 mmHg 76%
05:00 +3°C° 0 mm 3 m/s 753 mmHg 77%
06:00 +5°C° 0 mm 3 m/s 754 mmHg 72%
07:00 +8°C° 0 mm 3 m/s 754 mmHg 67%
08:00 +10°C° 0 mm 3 m/s 754 mmHg 62%
09:00 +11°C° 0 mm 4 m/s 754 mmHg 59%
10:00 +12°C° 0 mm 4 m/s 754 mmHg 56%
11:00 +14°C° 0 mm 4 m/s 754 mmHg 53%
12:00 +14°C° 0 mm 4 m/s 754 mmHg 52%
13:00 +14°C° 0 mm 4 m/s 754 mmHg 51%
14:00 +16°C° 0 mm 3 m/s 754 mmHg 51%
15:00 +16°C° 0 mm 3 m/s 754 mmHg 53%
16:00 +16°C° 0 mm 3 m/s 753 mmHg 56%
17:00 +16°C° 0 mm 2 m/s 753 mmHg 59%
18:00 +14°C° 0 mm 2 m/s 753 mmHg 63%
19:00 +12°C° 0 mm 2 m/s 753 mmHg 67%
20:00 +9°C° 0 mm 2 m/s 753 mmHg 71%
21:00 +9°C° 0 mm 2 m/s 753 mmHg 71%
22:00 +8°C° 0 mm 2 m/s 753 mmHg 71%
23:00 +7°C° 0 mm 2 m/s 754 mmHg 71%

11 Mai, Marţi

Timp Temperatura Precipitaţii Vânt Presiune Umiditate
00:00 +7°C° 0 mm 2 m/s 754 mmHg 72%
01:00 +6°C° 0 mm 2 m/s 754 mmHg 73%
02:00 +6°C° 0 mm 2 m/s 754 mmHg 74%
03:00 +6°C° 0 mm 2 m/s 754 mmHg 76%
04:00 +6°C° 0 mm 2 m/s 754 mmHg 77%
05:00 +6°C° 0 mm 2 m/s 754 mmHg 79%
06:00 +8°C° 0 mm 2 m/s 754 mmHg 74%
07:00 +10°C° 0 mm 3 m/s 754 mmHg 69%
08:00 +12°C° 0 mm 3 m/s 754 mmHg 63%
09:00 +13°C° 0 mm 3 m/s 754 mmHg 59%
10:00 +14°C° 0 mm 4 m/s 753 mmHg 54%
11:00 +17°C° 0 mm 4 m/s 753 mmHg 49%
12:00 +17°C° 0 mm 4 m/s 753 mmHg 48%
13:00 +18°C° 0 mm 4 m/s 753 mmHg 47%
14:00 +19°C° 0 mm 4 m/s 753 mmHg 45%
15:00 +19°C° 0 mm 3 m/s 752 mmHg 49%
16:00 +18°C° 0 mm 3 m/s 752 mmHg 53%
17:00 +18°C° 0 mm 3 m/s 752 mmHg 56%
18:00 +16°C° 0 mm 3 m/s 752 mmHg 62%
19:00 +13°C° 0 mm 3 m/s 752 mmHg 68%
20:00 +11°C° 0 mm 3 m/s 752 mmHg 75%
21:00 +11°C° 0 mm 3 m/s 752 mmHg 77%
22:00 +10°C° 0 mm 3 m/s 752 mmHg 80%
23:00 +10°C° 0 mm 3 m/s 752 mmHg 83%
Arată mai mult

Formular de consimțământ

Meteoprog și furnizorii noștri de servicii pot stoca și accesa date personale, precum cookies, identificatori de dispozitiv sau alte tehnologii similare pe dispozitivul dumneavoastră și procesa astfel de date pentru a personaliza conținutul și reclamele, dar și pentru a oferi caracteristici de social media și pentru a analiza traficul.

  • Stocarea și/sau accesarea informațiilor pe dispozitivul dumneavoastră

    Cookies, identificatori de dispozitiv sau alte informații pot fi stocate sau accesate pe dispozitiv în scopurile indicate mai sus.

  • Reclame și conținut personalizat, evaluarea reclamelor și a conținutului, informații despre audiențe și dezvoltarea produselor

    Reclamele și conținutul pot fi personalizate pe baza unui profil. Pot fi adăugate date suplimentare pentru a personaliza mai bine reclamele și conținutul. Performanța reclamelor și conținutului poate fi măsurată. Pot fi obținute informații despre utilizatorii care au văzut reclamele și conținutul. Aceste date pot fi utilizate pentru a dezvolta sau îmbunătăți experiența utilizatorilor, sistemele și software-ul.

Dând clic pe ‘Sunt de acord’, permiteți utilizarea cookie-urilor menționate, a identificatorilor de dispozitiv, balizelor web sau altor tehnologii similare. Setările pot fi modificate din browser-ul dispozitivului dumneavoastră.

În anumite scopuri, interesele legitime pot prima asupra consimțământului. Puteți citi mai multe informații în acest sens în Politica privind Confidențialitatea Datelor și Cookie.